[[{"header":{"parameterUnit":"m.s-1","parameterCategory":1,"la1":30.2991,"la2":30.254,"lo1":-89.0895,"lo2":-89.0444,"dy":0.0017,"dx":0.0017,"nx":28,"ny":28,"refTime":"2024-05-18T03:00:00:Z","depth":0,"parameterNumber":2,"parameterNumberName":"U-component_of_WINDS"},"data":[0,0,0,0,0,0,0,0,0,0,0,0,0,0,0,0,0,0,0,0,0,0,0,0,0,0,0,0,0,0,0,0,0,0,0,0,0,0,0,0,0,0,0,0,0,0,0,0,0,0,0,0,0,0,0,0,0,0,1.0961,1.0963,0,1.1119,1.1121,1.1123,1.1184,1.1184,1.1183,1.1183,1.1348,1.1353,1.1358,0,0,0,0,0,0,0,0,0,0,0,0,0,1.0714,1.0718,1.0961,1.0963,1.0965,1.1119,1.1121,1.1123,1.1184,1.1184,1.1183,1.1183,1.1347,1.1352,1.1358,0,0,0,0,0,0,0,0,0,0,0,0,0,1.0841,1.0719,1.0961,1.1014,1.102,1.1119,1.1121,1.1124,1.1185,1.1184,1.1183,1.1183,1.1345,1.1352,1.1359,1.1417,0,0,1.1381,1.1384,0,0,0,0,0,0,0,0,1.0834,1.0851,1.1004,1.101,1.1018,1.1131,1.1095,1.1222,1.1185,1.1122,1.1183,1.1182,1.1277,1.129,1.1321,1.1425,1.1432,1.1382,1.1386,1.1389,1.1391,0,0,0,0,0,0,0,1.0825,1.0844,1.1024,1.1006,1.1014,1.1031,1.1048,1.1119,1.1201,1.1128,1.1132,1.115,1.128,1.1314,1.1325,1.1434,1.1381,1.1388,1.1392,1.1395,1.1594,1.1595,0,0,0,0,0,0,1.0807,1.0836,1.1019,1.1028,1.0922,1.1036,1.1055,1.1096,1.1201,1.1216,1.1151,1.1152,1.1302,1.1317,1.1331,1.1406,1.1389,1.1396,1.14,1.1593,1.1594,1.1595,0,0,0,0,0,0,1.0802,1.0823,1.1012,1.0934,1.0959,1.1041,1.1086,1.1099,1.1132,1.1218,1.1233,1.1169,1.1302,1.1321,1.1395,1.1413,1.1399,1.1406,1.1592,1.1593,1.1595,1.1557,0,0,0,0,0,0,1.0794,1.0821,1.0843,1.0934,1.0963,1.1072,1.1087,1.1103,1.1144,1.1148,1.124,1.1254,1.1303,1.1384,1.1402,1.1423,1.1411,1.1591,1.1593,1.1594,1.1557,1.1557,1.1557,0,0,0,0,0,1.0785,1.0826,1.0844,1.0865,1.0992,1.1073,1.109,1.1144,1.1145,1.1169,1.1224,1.1251,1.1408,1.1391,1.1412,1.1435,1.159,1.1592,1.1594,1.1557,1.1557,1.1557,0,0,0,0,0,0,1.0736,1.0839,1.086,1.0931,1.0993,1.1083,1.1115,1.1142,1.1206,1.1207,1.1272,1.1292,1.1361,1.1406,1.1385,1.1497,1.1501,1.1507,1.1465,1.1466,1.1466,1.1454,1.1417,0,0,0,0,0,1.0734,1.079,1.0877,1.0932,1.0962,1.1033,1.107,1.1106,1.1173,1.12,1.1261,1.1325,1.1389,1.143,1.1494,1.1563,1.1585,1.159,1.1589,1.1589,1.1594,1.1635,1.1638,1.1602,1.1602,1.1602,0,0,1.0729,1.0792,1.0824,1.0924,1.0976,1.1034,1.1054,1.1115,1.1158,1.121,1.1283,1.1329,1.1406,1.1478,1.1513,1.1518,1.1609,1.1592,1.1591,1.1596,1.1637,1.1641,1.1643,1.1604,1.1604,1.1603,0,0,1.075,1.0803,1.0855,1.0907,1.0985,1.1032,1.1044,1.1131,1.1163,1.1238,1.1278,1.1331,1.1439,1.1492,1.1534,1.1574,1.1602,1.1593,1.1593,1.1632,1.1635,1.1638,1.1653,1.1657,1.1598,1.1598,1.1598,0,1.0735,1.0823,1.0878,1.0936,1.0979,1.1027,1.108,1.1128,1.1223,1.1252,1.1256,1.1393,1.1448,1.1533,1.1543,1.1574,1.1591,1.1584,1.163,1.1633,1.1637,1.1652,1.1657,1.1596,1.1597,1.1597,1.1597,0,1.08,1.086,1.0893,1.0983,1.1029,1.1085,1.1149,1.119,1.1222,1.1268,1.1344,1.1411,1.1489,1.1512,1.1545,1.1603,1.1603,1.1617,1.1623,1.1638,1.1653,1.1659,1.1594,1.1595,1.1595,1.1596,0,0,1.0795,1.0915,1.0926,1.0968,1.1057,1.1106,1.1163,1.1239,1.1272,1.1336,1.1387,1.1477,1.1491,1.1538,1.1576,1.161,1.1639,1.1621,1.1624,1.1622,1.1707,1.1696,1.1702,1.1657,1.1659,1.166,1.1701,0,1.0829,1.0933,1.0985,1.1067,1.1124,1.117,1.1221,1.1281,1.1327,1.1382,1.1432,1.1495,1.1508,1.1537,1.1572,1.1627,1.1657,1.1625,1.1706,1.1708,1.1685,1.171,1.1698,1.1734,1.1707,1.1708,1.1709,0,1.0882,1.0945,1.1032,1.1116,1.1142,1.1186,1.1259,1.1311,1.1381,1.1412,1.1463,1.1501,1.1564,1.1564,1.1653,1.163,1.1666,1.1698,1.1701,1.1711,1.1709,1.1721,1.1747,1.1752,1.1719,1.1718,1.1717,0,1.087,1.0977,1.1043,1.1077,1.1176,1.1206,1.1249,1.1318,1.136,1.1424,1.1453,1.1523,1.1563,1.1617,1.1673,1.1668,1.1756,1.1761,1.1784,1.1782,1.1801,1.1799,1.1833,1.1823,1.1823,1.1823,1.1823,0,1.0902,1.0954,1.1039,1.108,1.1139,1.1199,1.1256,1.1303,1.1364,1.1415,1.146,1.1507,1.1578,1.1634,1.1678,1.1745,1.1762,1.1789,1.1801,1.1786,1.1782,1.1811,1.181,1.1824,1.1824,1.1824,1.1823,0,1.0899,1.0958,1.1034,1.1121,1.1144,1.1184,1.1259,1.1301,1.1348,1.1412,1.143,1.1505,1.1573,1.1634,1.1725,1.1755,1.1823,1.1837,1.1799,1.1805,1.1825,1.1822,1.1879,1.1889,1.1871,1.1871,1.1871,0,1.0916,1.0957,1.1048,1.1085,1.1127,1.1186,1.1229,1.1289,1.1332,1.1415,1.1447,1.1518,1.1579,1.1686,1.1749,1.1819,1.1835,1.185,1.1846,1.183,1.1836,1.1833,1.1837,1.185,1.185,1.185,1.185,0,1.094,1.0967,1.1027,1.1097,1.1146,1.1205,1.1264,1.1292,1.1363,1.141,1.148,1.1526,1.1619,1.169,1.1766,1.1812,1.1843,1.185,1.1859,1.1845,1.1821,1.1834,1.1799,1.1849,1.1849,1.1849,1.1849,1.1849,1.0948,1.0987,1.1057,1.1122,1.1173,1.1227,1.1271,1.1323,1.1382,1.1462,1.1494,1.1565,1.1635,1.1741,1.1786,1.1843,1.1849,1.1862,1.1865,1.1868,1.1865,1.1811,1.1857,1.1857,1.1858,1.1858,1.1858,0,1.0975,1.1022,1.1081,1.1163,1.1214,1.1238,1.1305,1.1346,1.1408,1.147,1.1529,1.1609,1.1678,1.1746,1.1818,1.1851,1.1867,1.1868,1.1867,1.1877,1.1856,1.1841,1.1854,1.1854,1.1854,1.1854,1.1854,1.1854,1.0994,1.1061,1.1096,1.1188,1.1236,1.1306,1.1342,1.1393,1.1442,1.153,1.1587,1.163,1.1695,1.1772,1.1837,1.1855,1.188,1.1877,1.1899,1.1878,1.1878,1.1878,1.1864,1.1882,1.1882,1.1915,1.1916,1.1916]},{"header":{"parameterUnit":"m.s-1","parameterCategory":1,"la1":30.2991,"la2":30.254,"lo1":-89.0895,"lo2":-89.0444,"dy":0.0017,"dx":0.0017,"nx":28,"ny":28,"refTime":"2024-05-18T03:00:00:Z","depth":0,"parameterNumber":3,"parameterNumberName":"V-component_of_WINDS"},"data":[0,0,0,0,0,0,0,0,0,0,0,0,0,0,0,0,0,0,0,0,0,0,0,0,0,0,0,0,0,0,0,0,0,0,0,0,0,0,0,0,0,0,0,0,0,0,0,0,0,0,0,0,0,0,0,0,0,0,1.8675,1.8676,0,1.8719,1.872,1.872,1.8652,1.8649,1.8647,1.8645,1.8692,1.8695,1.8699,0,0,0,0,0,0,0,0,0,0,0,0,0,1.8531,1.8534,1.8675,1.8676,1.8676,1.8719,1.872,1.8721,1.8652,1.8649,1.8646,1.8643,1.8691,1.8695,1.8699,0,0,0,0,0,0,0,0,0,0,0,0,0,1.8586,1.8535,1.8675,1.8647,1.8645,1.8719,1.872,1.8721,1.8653,1.8649,1.8645,1.8642,1.8689,1.8695,1.87,1.8804,0,0,1.8716,1.8718,0,0,0,0,0,0,0,0,1.8583,1.8592,1.8651,1.8649,1.8647,1.8676,1.8686,1.8749,1.8654,1.865,1.8644,1.864,1.869,1.8695,1.8711,1.8806,1.8808,1.8716,1.8719,1.8722,1.8723,0,0,0,0,0,0,0,1.858,1.8589,1.8693,1.8652,1.8649,1.8632,1.8636,1.8698,1.869,1.865,1.8645,1.8651,1.8688,1.8706,1.8712,1.8809,1.8716,1.8721,1.8724,1.8726,1.8986,1.899,0,0,0,0,0,0,1.8579,1.8587,1.8691,1.8694,1.8606,1.8638,1.8642,1.8671,1.8689,1.8688,1.8654,1.8648,1.8699,1.8706,1.8713,1.8832,1.8722,1.8726,1.8729,1.8982,1.8987,1.8991,0,0,0,0,0,0,1.8576,1.8589,1.869,1.8639,1.865,1.8644,1.8677,1.8673,1.8691,1.8692,1.869,1.8674,1.8696,1.8706,1.878,1.8832,1.8729,1.8734,1.8978,1.8984,1.8989,1.9073,0,0,0,0,0,0,1.8572,1.8588,1.8628,1.864,1.8653,1.8757,1.868,1.8677,1.87,1.8692,1.871,1.8709,1.8694,1.8773,1.8786,1.8838,1.8738,1.8973,1.8981,1.8987,1.9065,1.9081,1.9094,0,0,0,0,0,1.8567,1.8652,1.8631,1.8644,1.8703,1.876,1.8767,1.8747,1.8705,1.8744,1.8744,1.8709,1.8826,1.8781,1.8795,1.885,1.897,1.8978,1.8987,1.9059,1.9078,1.9093,0,0,0,0,0,0,1.8647,1.8653,1.8629,1.872,1.874,1.8748,1.8797,1.8769,1.8802,1.8793,1.8768,1.8772,1.8851,1.8859,1.8809,1.8949,1.889,1.8902,1.8941,1.8958,1.8972,1.8967,1.8742,0,0,0,0,0,1.8675,1.8721,1.8723,1.8803,1.8814,1.8804,1.8828,1.8811,1.8831,1.8839,1.8844,1.8865,1.8905,1.8933,1.8971,1.9067,1.9068,1.9111,1.9125,1.9137,1.9146,1.9193,1.9211,1.9019,1.9019,1.9019,0,0,1.8734,1.8743,1.8773,1.8819,1.8832,1.8879,1.8812,1.8865,1.8898,1.8847,1.8916,1.8921,1.8942,1.9027,1.9064,1.9035,1.92,1.9148,1.9157,1.916,1.9203,1.9221,1.9238,1.9025,1.9024,1.9023,0,0,1.8863,1.8876,1.8941,1.8955,1.8975,1.8967,1.8983,1.8995,1.8996,1.9065,1.9026,1.9066,1.9138,1.9153,1.917,1.9302,1.927,1.9316,1.9389,1.9435,1.945,1.9463,1.9505,1.9522,1.9326,1.9326,1.9326,0,1.8934,1.9002,1.8979,1.9033,1.9053,1.9007,1.9072,1.9087,1.9119,1.9133,1.9101,1.9187,1.9199,1.9283,1.9315,1.9332,1.9347,1.9312,1.9449,1.9462,1.9474,1.9514,1.9531,1.9331,1.9331,1.933,1.933,0,1.9085,1.9132,1.9183,1.9212,1.9238,1.9298,1.9283,1.9312,1.9293,1.9288,1.9357,1.9369,1.9406,1.9426,1.9409,1.9508,1.9488,1.9453,1.9393,1.9498,1.9535,1.9551,1.9338,1.9337,1.9335,1.9334,0,0,1.9265,1.9279,1.9297,1.9307,1.9325,1.9361,1.9418,1.9453,1.9477,1.9501,1.9545,1.9606,1.9572,1.9591,1.9575,1.9616,1.9714,1.9575,1.9575,1.9596,1.9818,1.9842,1.986,1.9694,1.9697,1.9699,1.9815,0,1.939,1.9485,1.9465,1.9559,1.96,1.9557,1.9606,1.9621,1.9619,1.9653,1.9651,1.9692,1.9647,1.9657,1.9696,1.9694,1.9757,1.9686,1.9733,1.9735,1.9724,1.988,1.9906,2.0015,1.983,1.9833,1.9834,0,1.9548,1.9574,1.9671,1.9678,1.9695,1.9739,1.9767,1.9802,1.9818,1.9813,1.9833,1.9808,1.9863,1.9805,1.9878,1.9829,1.9848,1.9849,1.9853,1.9854,1.9788,1.9881,2.005,2.0064,1.9858,1.9856,1.9854,0,1.9664,1.9724,1.9788,1.98,1.9811,1.9842,1.9848,1.986,1.9881,1.9907,1.9919,1.9952,1.9969,1.9994,1.9978,1.9938,2.0052,1.9994,2.0047,2.0047,2.007,2.0068,2.0239,2.0089,2.0089,2.0089,2.0088,0,1.9803,1.9863,1.9839,1.9879,1.9944,1.992,1.9985,1.9987,1.9998,2.0035,2.0002,2.0038,2.0016,2.0051,2.0039,2.0099,2.0108,2.0104,2.0099,2.0104,2.0104,2.0113,2.0103,2.0093,2.0092,2.0091,2.0091,0,1.9942,1.9929,1.9995,1.9999,2.0002,2.0049,2.0052,2.0088,2.0082,2.013,2.014,2.0131,2.0169,2.0156,2.0199,2.019,2.0265,2.0253,2.0259,2.0254,2.0306,2.0299,2.0486,2.0507,2.0347,2.0349,2.035,0,2.0029,2.0073,2.0081,2.0103,2.0111,2.0148,2.0168,2.0146,2.0169,2.0188,2.0221,2.0256,2.0283,2.0346,2.0343,2.0374,2.0359,2.0423,2.0364,2.0366,2.0355,2.035,2.0353,2.0433,2.0435,2.0437,2.0438,0,2.0184,2.0174,2.0204,2.0231,2.0256,2.0277,2.0295,2.0315,2.0294,2.0321,2.0358,2.0379,2.042,2.0454,2.0481,2.0487,2.0458,2.0457,2.047,2.0473,2.0473,2.0469,2.0286,2.0452,2.045,2.0449,2.0449,2.0448,2.0296,2.0332,2.0341,2.0375,2.0385,2.0402,2.0434,2.0431,2.0462,2.0492,2.0478,2.0521,2.0533,2.0566,2.0576,2.0608,2.0584,2.0604,2.0608,2.0612,2.0617,2.0471,2.0614,2.0614,2.0613,2.0613,2.0612,0,2.0445,2.0448,2.048,2.0503,2.0529,2.05,2.0517,2.054,2.0578,2.0591,2.0617,2.0658,2.0691,2.0689,2.0719,2.0745,2.0732,2.0753,2.0748,2.0749,2.0639,2.0623,2.0762,2.0762,2.0762,2.0762,2.0762,2.0762,2.0525,2.0582,2.0574,2.0635,2.0638,2.0678,2.0689,2.0704,2.0714,2.0761,2.0786,2.0785,2.0792,2.0821,2.0848,2.0847,2.0858,2.0883,2.0876,2.0773,2.0758,2.0743,2.0727,2.0886,2.0886,2.0983,2.0983,2.0984]}]]